High Yield Ag Solutions

Hybrid Corn Planting Forecast

Guide: OK to plant corn when 5-Day GDU Accumulation greater than or equal to 40 and GDU are trending up. Careful with minimum temperatures below 50 (highlighted in yellow).
Clarksdale, MS Greenwood, MS Leland, MS Yazoo City, MS Bainbridge, GA Newport, AR
Date Low Temp (F) GDU 5 Day GDU Accumulation Low Temp (F) GDU 5 Day GDU Accumulation Low Temp (F) GDU 5 Day GDU Accumulation Low Temp (F) GDU 5 Day GDU Accumulation Low Temp (F) GDU 5 Day GDU Accumulation Low Temp (F) GDU 5 Day GDU Accumulation
03/12/2020 57.0 16 39 62.0 22.00 75 63.0 21.00 54 62.0 21.00 104 52.0 14.00 20
03/13/2020 50.0 8 29 57.0 15.00 69 53.0 10.00 43 60.0 20.00 105 44.0 6.00 7
03/14/2020 48.0 12 35 57.0 16.00 76 55.0 14.00 49 59.0 21.00 108 43.0 0.00 9
03/15/2020 45.0 1 45 51.0 10.00 86 47.0 2.00 60 58.0 20.00 110 39.0 0.00 26
03/16/2020 45.0 2 58 50.0 12.00 94 49.0 7.00 72 61.0 22.00 112 39.0 0.00 34
03/17/2020 50.0 6 57 55.0 16.00 86 51.0 10.00 67 63.0 22.00 112 46.0 1.00 34
03/18/2020 54.0 14 53 61.0 22.00 79 57.0 16.00 61 62.0 23.00 110 46.0 8.00 33
03/19/2020 67.0 22 47 68.0 26.00 70 68.0 25.00 51 61.0 23.00 109 62.0 17.00 29
03/20/2020 52.0 14 42 59.0 18.00 64 54.0 14.00 43 62.0 22.00 110 45.0 8.00 16
03/21/2020 46.0 1 36 49.0 4.00 61 48.0 2.00 39 64.0 22.00 115 40.0 0.00 10
03/22/2020 46.0 2 54 48.0 9.00 80 49.0 4.00 57 62.0 20.00 117 40.0 0.00 26
03/23/2020 52.0 8 76 57.0 13.00 97 53.0 6.00 79 62.0 22.00 123 46.0 4.00 47
03/24/2020 59.0 17 92 61.0 20.00 110 57.0 17.00 95 66.0 24.00 127 49.0 4.00 60
03/25/2020 52.0 8 89 57.0 15.00 106 54.0 10.00 92 69.0 27.00 131 48.0 2.00 68
03/26/2020 54.0 19 89 58.0 23.00 106 57.0 20.00 96 61.0 24.00 128 46.0 16.00 74
03/27/2020 68.0 24 78 66.0 26.00 89 67.0 26.00 82 66.0 26.00 121 64.0 21.00 66
03/28/2020 66.0 24 64 65.0 26.00 75 63.0 22.00 67 66.0 26.00 105 59.0 17.00 53
03/29/2020 55.0 14 52 56.0 16.00 63 54.0 14.00 60 69.0 28.00 89 52.0 12.00 48
03/30/2020 52.0 8 52 56.0 15.00 61 55.0 14.00 60 64.0 24.00 75 52.0 8.00 46
03/31/2020 52.0 8 54 47.0 6.00 60 49.0 6.00 58 55.0 17.00 69 47.0 8.00 42
04/01/2020 46.0 10 60 43.0 12.00 73 49.0 11.00 68 48.0 10.00 72 44.0 8.00 45
04/02/2020 52.0 12 68 51.0 14.00 79 55.0 15.00 75 46.0 10.00 81 51.0 12.00 52
04/03/2020 55.0 14 74 55.0 14.00 83 57.0 14.00 82 49.0 14.00 93 56.0 10.00 58
04/04/2020 55.0 10 85 55.0 14.00 92 57.0 12.00 92 53.0 18.00 105 50.0 4.00 74
04/05/2020 52.0 14 92 58.0 19.00 96 55.0 16.00 98 63.0 20.00 117 49.0 11.00 82
04/06/2020 55.0 18 82 55.0 18.00 83 58.0 18.00 89 57.0 19.00 111 53.0 15.00 76
04/07/2020 66.0 18 72 65.0 18.00 77 67.0 22.00 82 61.0 22.00 104 63.0 18.00 69
04/08/2020 68.0 25 66 68.0 23.00 79 69.0 24.00 80 67.0 24.00 91 68.0 26.00 105 68.0 26.00 58
04/09/2020 59.0 17 45 59.0 18.00 64 60.0 18.00 64 64.0 21.00 79 73.0 30.00 105 54.0 12.00 34
04/10/2020 42.0 4 28 48.0 6.00 52 49.0 7.00 51 53.0 10.00 67 57.0 14.00 95 40.0 5.00 25
04/11/2020 40.0 8 29 45.0 12.00 54 44.0 11.00 51 46.0 14.00 66 48.0 12.00 95 42.0 8.00 26
04/12/2020 56.0 12 27 62.0 20.00 52 63.0 20.00 50 63.0 22.00 64 63.0 23.00 97 51.0 7.00 25
04/13/2020 46.0 4 23 51.0 8.00 46 50.0 8.00 42 55.0 12.00 58 68.0 26.00 91 45.0 2.00 24
04/14/2020 42.0 0 29 45.0 6.00 52 45.0 5.00 48 48.0 9.00 64 60.0 20.00 83 41.0 3.00 31
04/15/2020 38.0 5 39 41.0 8.00 62 42.0 7.00 58 45.0 9.00 73 55.0 14.00 82 37.0 6.00 36
04/16/2020 40.0 6 44 44.0 10.00 70 45.0 10.00 67 47.0 12.00 82 55.0 14.00 87 42.0 7.00 40
04/17/2020 47.0 8 50 51.0 14.00 77 51.0 12.00 73 54.0 16.00 89 57.0 17.00 93 47.0 6.00 44
04/18/2020 49.0 10 54 54.0 14.00 80 54.0 14.00 78 57.0 18.00 93 58.0 18.00 98 47.0 9.00 49
04/19/2020 51.0 10 57 55.0 16.00 84 56.0 15.00 81 57.0 18.00 95 59.0 19.00 102 50.0 8.00 51
04/20/2020 51.0 10 61 55.0 16.00 86 56.0 16.00 84 58.0 18.00 97 59.0 19.00 106 50.0 10.00 55
04/21/2020 53.0 12 56 57.0 17.00 80 58.0 16.00 78 59.0 19.00 91 60.0 20.00 103 52.0 11.00 49

This table shows the five-day forward looking GDU accumulation for previous and forecast weather observations. The GDU accumulation is for a row in the table and includes the next 4 days. Researchers recommend that when a location receives more than 40 accumulated GDUs hybrid corn can be planted. High Yield Ag Solutions and KTS Wireless do not warrant the success of any recommendation. Absolutely no warranties are made regarding the success of these recommendations for any particular purpose. User expressly assumes the risk of all factors, including but not limited to acts of God, drought, wind and rain damage, crop disease, and the like, which may affect these recommendations.